Location: Unspecified
(49.2170°N, 0.0000°E)
Time: 10:48:34
(UTC+00:00)

Vanguard 2 Rocket - Pass Details

Date: 30 January 2021
Orbit: 554 x 3326 km, 32.9° (Epoch: 25 February)

Event Time Altitude Azimuth Distance (km) Brightness Sun altitude
Rises 18:33:14 0° 267° (W) 5,690 12.8 -16.3°
Reaches altitude 10° 18:39:46 10° 247° (WSW) 3,995 11.3 -17.4°
Maximum altitude 18:44:16 14° 220° (SW) 3,182 10.3 -18.1°
Drops below altitude 10° 18:47:53 10° 191° (SSW) 3,061 9.8 -18.7°
Sets 18:51:41 0° 166° (SSE) 3,581 9.9 -19.3°
